Location: Alt?nyaka
(36.5586°N, 30.3483°E)
Time: 22:15:19
(UTC+00:00)

Daily predictions for brighter satellites

Satellite Brightness Start Highest point End
(mag) Time Altitude Azimuth Time Altitude Azimuth Time Altitude Azimuth
Cosmos 2360 Rocket 3.9 15:38:47 10° ESE 15:40:35 11° E 15:42:22 10° ENE
Cosmos 1703 3.7 15:39:44 10° N 15:43:24 37° E 15:47:00 10° SSE
CZ-4B DEB 4.4 15:41:32 10° SSE 15:47:04 85° WSW 15:52:39 10° NNW
CZ-4B R/B 3.4 15:43:22 10° SSE 15:48:49 53° ENE 15:54:19 10° N
Cosmos 1607 3.9 15:42:58 10° NNW 15:49:14 75° ENE 15:55:22 10° SE
CZ-4C R/B 3.6 15:47:21 10° NNE 15:50:23 32° E 15:53:20 10° SSE
PSLV R/B 4.1 15:47:12 10° S 15:51:15 77° WSW 15:55:16 10° NNW
MOS 1-B Rocket 4.2 15:45:28 10° NNE 15:51:41 49° E 15:57:13 10° S
H-2A R/B 2.2 15:47:08 10° SSE 15:52:22 59° ENE 15:57:43 10° N
PAYLOAD B 4.2 15:48:00 10° SSE 15:53:31 85° ENE 15:59:05 10° NNW
Cosmos 405 Rocket 3.1 15:53:23 10° N 15:57:14 46° E 16:01:06 10° SSE
Iridium 4 Rocket 3.9 15:53:49 10° NNE 15:58:07 35° E 16:02:43 10° SSE
ARGOS 3.6 15:54:11 10° SE 15:59:09 40° ENE 16:04:10 10° N
X-37B 2.7 15:57:01 10° NW 15:59:14 17° N 16:01:26 10° NE
NOSS 2-3 (E) 3.6 15:58:06 10° SSW 16:01:53 48° ESE 16:05:59 10° NE
MOS 1-B 4.5 15:57:26 10° SSE 16:03:14 85° WSW 16:09:03 10° NNW
Cosmos 1980 Rocket 3.5 15:58:34 10° SW 16:03:52 41° WNW 16:09:15 10° N
Cosmos 1821 Rocket 4.4 15:58:40 10° SSW 16:05:03 74° W 16:11:26 10° N
USA 229 DEB 4.2 16:00:25 10° S 16:05:56 33° ESE 16:11:41 10° NE
USA 229 4.2 16:00:33 10° S 16:06:02 33° ESE 16:11:46 10° NE
Cosmos 2263 Rocket 2.3 16:01:35 10° NNW 16:07:01 52° ENE 16:12:25 10° SE
Cosmos 371 Rocket 3.2 16:05:40 10° S 16:10:27 67° ESE 16:15:18 10° NNE
SJ-11-01 4.3 16:08:44 10° SSE 16:13:17 55° ENE 16:17:53 10° N
Meteor 1-21 Rocket 4.5 16:07:28 10° N 16:13:22 82° W 16:19:17 10° S
Cosmos 1328 4.0 16:09:33 10° N 16:13:28 47° E 16:17:21 10° SSE
Cosmos 1953 3.6 16:09:41 10° SSW 16:13:33 45° W 16:17:28 10° N
SKYMED 2 3.8 16:11:25 10° N 16:15:46 73° WNW 16:20:04 10° SSW
CZ-2D R/B 4.1 16:12:55 10° S 16:16:40 53° W 16:20:27 10° NNW
YAOGAN 1 3.3 16:14:33 10° SE 16:18:22 32° ENE 16:22:13 10° N
Cosmos 1455 Rocket 3.6 16:15:24 10° SSW 16:19:44 61° W 16:24:09 10° N
Cosmos 1934 Rocket 3.9 16:15:34 10° S 16:21:40 80° E 16:27:45 10° N
H-2A R/B 2.8 16:17:43 10° SE 16:21:52 43° ENE 16:25:53 10° N
EXPRESS MD2 3.9 16:20:55 10° S 16:21:58 17° SSE 16:21:58 17° SSE
Cosmos 1269 Rocket 4.0 16:17:25 10° NNW 16:22:42 67° ENE 16:27:56 10° SSE
CZ-2C R/B 2.8 16:18:37 10° N 16:24:13 83° WNW 16:29:42 10° SSW
NOSS 3-1 (A) 3.3 16:23:30 10° S 16:28:21 48° ESE 16:32:40 16° NE
CZ-4 R/B 1.8 16:24:53 10° SE 16:28:35 39° ENE 16:32:23 10° N
H-2A R/B 2.4 16:24:53 10° NNE 16:28:45 38° E 16:32:41 10° S
CZ-3 Stage 3 4.0 16:04:36 10° W 16:30:40 59° SSW 16:34:12 21° ESE
Okean O Rocket 1.9 16:28:25 10° S 16:32:43 69° WSW 16:37:04 10° NNW
Cosmos 1544 Rocket 3.7 16:29:14 10° S 16:33:41 79° W 16:38:10 10° N
CZ-4 R/B 4.5 16:29:46 10° S 16:33:54 81° WSW 16:38:03 10° NNW
Tiangong 2.1 16:34:03 10° WNW 16:37:02 35° N 16:37:44 31° NNE
USA 267 3.7 16:33:17 10° SSE 16:39:45 62° SW 16:46:14 10° NW
Cosmos 1844 Rocket 4.0 16:36:30 10° N 16:39:58 20° NE 16:39:58 20° NE
SL-08 RB Rocket 3.6 16:36:46 10° SSE 16:41:15 72° ENE 16:45:49 10° N
IRS-1C Rocket 4.3 16:40:35 20° SE 16:43:55 45° ENE 16:48:55 10° N
Cosmos 2123 Rocket 4.1 16:41:59 10° N 16:48:20 80° W 16:54:35 10° S
Cosmos 44 3.6 16:43:36 10° SSW 16:48:52 56° ESE 16:51:07 33° NE
NOSS 2-3 (D) 4.0 16:45:19 10° SW 16:49:14 55° NW 16:52:36 16° NNE
Meteor 1-4 Rocket 2.3 16:45:57 10° S 16:49:27 88° E 16:51:14 27° N
Okean-O 3.4 16:51:27 34° NE 16:51:27 34° NE 16:54:36 10° N
Feng Yun 1-1 Rocket 4.2 16:47:16 10° SSE 16:52:47 84° WSW 16:58:27 10° NNW
NOSS 3-1 (C) 3.8 16:49:32 10° SW 16:54:31 53° NW 17:00:17 10° NNE
DMSP B5D1-3 4.4 16:51:12 10° NNE 16:56:22 89° ESE 17:01:31 10° SSW
Okean 1-7 Rocket 4.2 16:52:31 10° NNW 16:56:51 56° W 17:01:12 10° S
SL-16 R/B 2.8 16:52:01 10° SW 16:57:35 57° WNW 17:03:10 10° NNE
CZ-2C R/B 1.4 16:56:46 10° W 16:59:50 52° SW 16:59:50 52° SW
Cosmos 1602 Rocket 3.3 16:58:56 10° N 17:03:14 73° ENE 17:03:14 73° ENE
Meteor 2-10 Rocket 3.7 16:58:48 10° S 17:04:29 83° W 17:09:58 10° N
Meteor 2-11 Rocket 4.5 16:59:27 10° SSE 17:05:21 52° E 17:11:18 10° NNE
Cosmos 304 Rocket 4.5 17:06:00 10° SSW 17:10:39 53° WNW 17:15:21 10° N
Cosmos 2322 Rocket 2.7 17:06:30 10° SW 17:12:00 57° WNW 17:17:32 10° NNE
Cosmos 2344 4.5 17:04:08 10° NNW 17:13:34 57° NE 17:18:58 36° ESE
Cosmos 839 Rocket 4.0 17:09:53 10° NNW 17:17:08 68° ENE 17:18:21 56° ESE
Cosmos 2333 Rocket 4.0 17:14:38 10° S 17:16:00 17° S 17:16:00 17° S
Cosmos 2360 Rocket 2.2 17:18:07 10° SSW 17:23:45 79° WNW 17:26:15 35° NNE
Lacrosse 4 Rocket 3.1 17:20:49 10° NNW 17:22:49 26° N 17:22:49 26° N
X-37B 4.0 17:33:41 10° NW 17:33:45 10° NW 17:33:45 10° NW
CZ-4 R/B 4.5 18:01:56 10° WSW 18:03:44 13° W 18:05:35 10° WNW
Milstar 3 Cent rocket 4.1 18:19:17 10° WSW 18:25:17 48° SSW 18:25:17 48° SSW
